Wind_Speed
48 49 50 47 51 50 50 51 52 48 47 46 42 44 35 32 33 26 25 24 25 24 23 25 28 30 31 31 34 38 39 39 40 39 35 36 38 41 41 41 41 38 39 42
48 51 52 52 51 51 50 51 51 52 49 48 48 44 46 38 29 30 28 32 30 23 32 32 30 29 26 25 30 35 38 42 42 43 42 41 39 41 41 39 39 41 41 45
48 51 48 48 52 54 54 54 51 52 53 53 54 53 48 43 34 35 35 37 36 25 31 34 24 21 25 32 35 36 37 38 40 43 45 46 46 44 43 43 43 43 46 49
52 47 45 49 50 49 53 49 50 50 52 56 53 55 52 48 42 41 40 43 41 35 31 32 35 41 41 39 39 41 43 42 42 45 46 46 47 46 45 47 49 50 51 51
56 53 52 50 47 51 52 51 51 52 54 61 64 60 60 59 56 52 49 43 47 46 47 43 44 45 43 47 47 47 47 49 50 50 52 54 54 55 54 52 52 54 56 58
55 58 59 55 53 53 55 55 57 58 58 65 63 63 64 64 63 60 57 51 46 56 57 52 50 52 53 55 54 55 54 56 59 59 59 60 61 60 59 56 56 57 58 59
51 51 54 57 61 59 57 57 60 62 64 66 62 67 68 68 65 62 60 58 61 63 60 59 61 61 62 62 63 65 61 59 59 66 66 63 64 64 65 61 59 60 63 63
48 50 50 54 55 54 53 55 57 61 65 67 65 70 71 67 70 67 68 68 63 55 63 68 71 74 69 69 65 66 56 54 54 54 59 58 63 65 68 60 58 62 66 68
56 57 56 53 58 60 63 63 61 63 64 69 71 67 71 70 70 73 62 65 73 74 70 73 72 71 72 71 71 65 59 51 54 55 56 58 62 65 66 66 68 64 66 70
62 64 63 59 59 64 66 68 68 66 62 68 74 72 69 74 73 74 78 79 76 76 76 73 72 72 72 70 66 64 63 61 58 58 61 56 59 61 63 62 64 69 72 74
59 65 66 70 69 65 66 62 59 57 62 68 72 80 73 73 78 82 81 83 87 86 84 78 76 76 77 75 69 65 67 64 61 54 53 55 56 60 62 65 66 64 73 75
59 53 69 70 67 67 64 59 60 70 79 80 78 81 72 73 75 78 78 82 83 83 81 81 77 77 74 72 73 71 67 69 63 61 56 57 60 61 63 66 67 72 74 75
66 69 67 74 75 70 68 70 73 71 60 55 57 60 65 74 76 83 85 86 86 85 84 87 87 80 80 77 74 74 73 72 69 62 62 64 65 63 63 65 67 72 74 68
63 64 66 68 68 71 69 65 64 66 66 70 73 79 75 78 80 82 80 79 83 84 84 88 87 83 84 77 75 75 76 77 79 80 72 69 72 72 70 66 69 71 74 63
63 67 66 67 66 68 71 71 69 71 72 79 77 82 77 78 69 66 74 74 76 78 83 84 92 87 90 88 83 82 78 77 76 83 87 90 94 86 78 80 80 81 76 74
68 70 70 72 68 68 72 70 71 71 73 78 77 79 81 80 79 79 78 83 87 88 93 94 91 92 92 91 95 94 93 87 83 84 91 95 91 86 82 76 82 88 86 86
71 72 73 78 71 74 77 73 72 74 76 79 82 84 85 86 87 87 86 88 89 90 90 93 98 99 98 100 98 100 96 96 97 103 102 96 90 88 75 69 78 89 90 91
73 73 74 80 76 82 79 78 79 79 82 86 88 87 87 87 88 87 88 91 92 92 92 93 95 97 99 104 106 110 110 106 110 108 102 97 89 87 83 69 69 71 71 72
71 71 75 77 79 83 81 78 78 82 83 83 83 84 85 85 85 84 85 85 85 86 87 88 89 90 90 92 97 100 101 100 99 98 96 92 90 90 87 77 68 72 73 74
64 66 70 72 76 77 78 76 77 76 81 76 78 80 82 84 85 80 80 82 82 83 85 86 86 87 87 87 90 92 92 92 92 90 88 92 97 99 94 88 78 77 75 74
62 64 66 67 70 72 68 66 68 70 70 72 73 74 76 78 79 81 79 82 83 83 84 85 85 84 83 83 84 83 83 85 87 86 84 79 81 89 88 88 82 75 77 75
58 58 59 61 63 64 61 61 62 62 66 68 70 72 76 77 79 80 81 82 84 85 85 86 88 88 86 87 88 87 84 86 86 86 85 85 83 84 85 83 72 78 66 60
53 52 55 55 57 56 59 61 62 64 69 69 71 72 75 78 78 80 81 81 80 80 80 79 80 81 79 80 81 84 83 86 87 88 88 87 92 91 87 85 76 75 68 54
48 47 53 58 52 56 58 61 63 64 66 66 68 70 71 73 73 74 74 74 75 76 77 78 79 79 79 79 80 81 81 83 84 85 87 90 91 96 98 96 89 77 73 70
44 48 52 57 56 57 59 60 61 61 61 61 60 60 62 65 67 70 70 71 73 75 76 78 78 77 76 76 78 78 79 80 81 82 83 85 90 93 98 100 97 90 82 83
45 51 58 58 55 56 60 56 57 56 54 55 57 58 59 64 66 69 69 71 72 72 72 72 73 75 74 73 70 70 71 74 76 76 77 79 82 86 92 99 96 96 95 94
Wind_Direction
276 277 282 284 280 282 283 286 287 288 289 282 276 280 279 280 282 280 273 279 278 276 278 273 276 279 282 285 284 278 275 272 272 274 274 271 271 271 274 276 274 272 269 268
275 279 281 279 280 279 280 282 284 286 283 281 281 277 282 279 274 274 278 285 279 275 281 272 281 278 282 288 288 284 282 280 275 273 270 271 272 273 271 270 276 277 271 267
273 274 277 279 278 277 276 275 278 279 281 281 282 280 278 277 273 271 272 276 280 287 278 270 262 263 275 281 279 276 277 280 281 279 277 277 275 273 271 273 269 265 263 264
271 272 272 275 275 274 272 272 274 275 278 281 278 277 282 279 275 274 279 281 283 281 265 267 275 282 284 274 272 273 275 274 273 276 276 274 274 275 277 273 268 271 267 263
275 273 271 269 267 265 270 269 270 272 273 279 279 278 278 281 279 284 284 285 291 290 281 277 278 279 280 279 275 270 270 270 271 271 271 274 273 270 268 266 266 264 264 265
275 272 272 269 263 262 264 264 267 268 269 273 274 276 275 275 279 281 284 287 283 280 284 284 281 280 279 279 275 273 271 269 268 270 271 270 270 268 267 265 265 263 259 259
280 278 277 273 270 267 266 266 266 265 264 268 271 274 273 274 277 281 285 282 280 280 286 288 285 283 284 283 280 279 280 280 279 273 268 266 266 264 263 263 262 262 261 260
273 268 269 269 265 264 261 261 266 272 269 265 263 266 270 273 277 280 280 282 284 286 285 283 284 283 282 284 282 284 285 277 269 263 265 263 268 267 269 267 262 260 261 259
267 272 271 265 266 265 267 269 269 269 267 268 263 261 267 269 272 277 281 283 283 281 280 282 284 285 289 288 289 289 285 278 270 265 258 263 268 264 265 269 271 264 261 262
271 268 267 265 265 268 274 274 273 275 277 274 263 266 265 271 276 273 275 276 276 278 279 279 279 282 283 283 282 282 282 279 273 264 258 256 259 262 263 265 267 268 267 264
282 279 271 271 268 271 277 275 270 272 274 278 277 265 266 274 271 271 273 273 275 276 277 277 279 282 284 281 278 276 272 270 267 261 256 255 259 256 259 259 260 261 264 266
282 269 279 280 275 274 275 267 269 279 282 281 282 278 272 276 279 280 279 278 280 283 283 282 282 283 280 279 277 274 267 264 262 260 254 254 249 251 252 253 253 257 262 266
279 278 281 284 284 283 279 276 274 278 280 277 275 278 280 281 281 282 283 283 282 282 283 283 283 281 279 279 275 268 262 256 253 252 250 248 249 250 250 253 255 258 256 259
276 273 273 274 279 280 277 275 275 274 267 269 266 269 271 275 278 280 280 279 279 280 281 281 280 281 279 278 275 269 264 261 256 251 252 257 261 262 252 251 256 256 253 255
277 276 274 276 274 271 272 273 272 271 268 272 274 276 280 279 274 264 267 269 269 271 274 275 275 276 277 277 276 272 268 267 266 260 258 259 264 268 262 259 256 252 253 254
276 276 276 274 274 271 271 271 274 273 273 275 278 278 277 277 275 273 268 263 262 265 269 267 271 272 269 274 275 274 268 266 264 263 267 270 270 268 266 260 257 253 254 261
273 274 275 273 273 271 269 274 272 272 273 276 277 277 278 278 278 278 276 274 273 272 271 270 271 270 271 272 271 270 269 269 273 275 274 271 268 264 262 255 252 254 255 253
274 273 272 273 273 271 274 272 272 274 274 275 278 281 282 282 281 282 284 281 279 277 276 275 273 271 270 271 270 269 270 273 272 271 270 269 264 261 260 249 254 258 263 261
275 274 275 275 275 276 277 280 280 280 280 281 281 281 282 282 281 281 282 282 282 282 281 279 278 277 275 274 272 271 271 270 268 266 265 261 259 258 258 257 256 263 267 267
278 277 276 277 279 280 280 282 282 283 280 281 280 282 283 284 285 285 285 285 284 283 283 282 280 279 278 276 274 273 272 271 269 267 264 261 257 258 258 256 257 262 262 260
278 278 279 280 282 281 283 284 283 284 286 284 286 286 287 288 288 288 286 286 286 285 284 283 282 281 280 278 276 274 274 274 272 270 266 259 262 259 259 260 259 263 260 255
280 282 283 281 281 286 287 288 286 285 283 284 284 284 284 285 285 286 286 286 286 285 284 283 282 282 281 279 277 275 273 270 269 268 267 260 259 258 256 252 249 251 249 253
279 280 280 283 284 286 286 285 284 284 285 285 285 285 286 286 287 287 286 286 287 288 287 286 286 284 284 283 281 278 275 271 267 265 264 262 260 259 251 248 245 243 251 250
281 281 283 281 286 284 282 282 283 284 286 288 288 289 289 289 290 291 291 291 291 291 291 290 289 288 287 286 283 281 277 275 272 267 262 260 259 258 258 254 251 244 248 257
284 284 284 282 286 284 284 285 287 288 289 288 290 293 294 295 295 295 295 295 294 294 293 292 292 290 288 285 284 282 280 277 273 270 267 261 256 256 257 257 256 250 247 256
284 286 285 287 287 288 290 291 290 290 290 294 297 299 300 300 300 299 300 299 298 296 295 294 292 291 290 289 288 285 283 281 278 273 269 265 260 255 253 254 257 257 254 255
Height
5801 5799 5797 5800 5796 5794 5792 5790 5788 5792 5793 5788 5788 5782 5790 5794 5793 5796 5794 5794 5793 5791 5790 5786 5783 5782 5782 5783 5783 5783 5783 5783 5782 5782 5783 5783 5785 5784 5785 5784 5783 5783 5784 5784
5793 5789 5789 5788 5788 5785 5783 5780 5779 5778 5779 5778 5776 5776 5775 5782 5786 5786 5787 5785 5783 5785 5783 5779 5778 5776 5775 5775 5773 5773 5772 5771 5771 5771 5771 5771 5774 5775 5774 5773 5774 5774 5774 5772
5781 5778 5777 5778 5776 5776 5774 5769 5769 5766 5767 5767 5765 5761 5764 5771 5777 5775 5775 5774 5774 5774 5773 5771 5769 5769 5768 5765 5762 5760 5760 5761 5761 5761 5760 5761 5761 5762 5764 5765 5763 5760 5759 5761
5766 5768 5768 5764 5763 5763 5758 5760 5758 5757 5755 5752 5756 5747 5750 5755 5763 5764 5764 5761 5760 5763 5764 5766 5764 5763 5760 5756 5752 5750 5747 5747 5748 5748 5747 5747 5747 5749 5753 5752 5751 5751 5747 5746
5754 5753 5753 5751 5751 5747 5747 5746 5747 5747 5744 5740 5739 5744 5740 5739 5740 5745 5749 5750 5746 5743 5745 5749 5749 5748 5748 5746 5744 5739 5736 5734 5733 5732 5733 5733 5732 5733 5732 5733 5736 5736 5735 5733
5738 5737 5736 5736 5734 5734 5733 5732 5731 5731 5732 5728 5730 5731 5725 5727 5728 5726 5729 5730 5731 5725 5725 5727 5728 5727 5729 5731 5731 5729 5725 5721 5719 5717 5717 5717 5718 5717 5717 5718 5720 5719 5718 5717
5721 5723 5723 5723 5720 5721 5720 5719 5716 5715 5715 5717 5721 5718 5714 5712 5715 5712 5709 5707 5707 5709 5709 5708 5704 5705 5706 5706 5709 5712 5715 5713 5712 5708 5702 5700 5701 5700 5700 5700 5700 5702 5702 5702
5706 5709 5710 5709 5706 5706 5707 5706 5705 5696 5700 5701 5704 5698 5702 5705 5701 5698 5694 5694 5693 5692 5690 5687 5686 5685 5687 5683 5685 5688 5691 5691 5690 5689 5686 5685 5684 5684 5684 5685 5685 5686 5685 5683
5690 5694 5694 5698 5696 5696 5693 5690 5691 5682 5685 5679 5684 5690 5689 5693 5689 5681 5672 5671 5670 5673 5672 5671 5667 5664 5663 5667 5667 5665 5666 5669 5672 5672 5669 5670 5669 5667 5668 5669 5667 5665 5665 5665
5675 5676 5679 5679 5678 5676 5675 5674 5671 5668 5659 5660 5667 5671 5677 5674 5665 5659 5658 5657 5653 5653 5652 5652 5652 5651 5649 5650 5650 5647 5647 5647 5648 5651 5651 5650 5650 5650 5649 5650 5650 5649 5648 5645
5659 5657 5667 5665 5663 5662 5658 5653 5654 5650 5644 5638 5640 5647 5660 5653 5642 5637 5636 5637 5635 5635 5634 5634 5633 5632 5632 5632 5632 5632 5628 5627 5629 5630 5630 5627 5627 5629 5631 5631 5629 5629 5628 5626
5646 5640 5635 5645 5649 5645 5639 5636 5635 5628 5625 5616 5610 5612 5649 5629 5620 5618 5620 5617 5615 5612 5610 5609 5608 5609 5608 5609 5609 5609 5611 5607 5608 5609 5609 5608 5608 5606 5607 5607 5608 5609 5610 5609
5628 5620 5615 5615 5623 5621 5617 5616 5618 5612 5606 5601 5593 5592 5613 5618 5605 5597 5595 5594 5591 5590 5589 5585 5585 5584 5581 5581 5584 5584 5584 5585 5585 5585 5586 5586 5586 5587 5587 5587 5590 5590 5590 5591
5609 5606 5604 5600 5606 5597 5595 5598 5598 5594 5585 5583 5578 5575 5586 5586 5588 5581 5578 5574 5570 5567 5565 5560 5558 5558 5558 5556 5557 5559 5560 5560 5563 5562 5563 5563 5565 5565 5565 5565 5569 5570 5570 5571
5589 5583 5584 5585 5585 5579 5576 5577 5582 5575 5570 5556 5560 5553 5557 5553 5560 5566 5556 5550 5548 5545 5542 5538 5537 5536 5533 5530 5533 5534 5532 5533 5535 5538 5538 5539 5538 5540 5542 5544 5546 5547 5548 5550
5570 5565 5563 5562 5566 5557 5552 5559 5561 5554 5548 5539 5537 5533 5532 5529 5529 5532 5536 5537 5532 5525 5521 5518 5516 5511 5507 5504 5505 5505 5505 5504 5506 5510 5510 5510 5510 5511 5512 5513 5517 5522 5525 5526
5551 5547 5543 5531 5545 5533 5525 5544 5539 5531 5529 5525 5519 5511 5506 5503 5500 5500 5503 5503 5503 5502 5499 5495 5488 5487 5483 5480 5475 5477 5474 5472 5472 5473 5476 5479 5480 5481 5486 5487 5488 5489 5495 5502
5529 5530 5521 5509 5518 5505 5515 5516 5513 5513 5510 5503 5493 5487 5481 5477 5476 5479 5473 5471 5473 5472 5470 5467 5464 5461 5458 5451 5445 5444 5443 5441 5443 5443 5445 5446 5448 5452 5454 5461 5463 5464 5468 5474
5512 5508 5498 5492 5492 5488 5492 5491 5490 5486 5484 5477 5471 5462 5458 5451 5451 5462 5449 5446 5446 5442 5439 5436 5432 5430 5429 5424 5416 5413 5412 5411 5412 5412 5415 5417 5418 5421 5425 5431 5435 5440 5442 5445
5493 5488 5479 5477 5470 5465 5472 5471 5465 5460 5454 5456 5446 5443 5435 5427 5422 5435 5426 5420 5418 5414 5409 5405 5404 5401 5400 5397 5390 5386 5384 5382 5380 5380 5383 5384 5387 5390 5393 5399 5407 5413 5417 5420
5472 5468 5462 5460 5450 5446 5454 5451 5444 5440 5437 5431 5427 5422 5415 5407 5404 5401 5403 5394 5390 5388 5384 5378 5374 5373 5372 5367 5361 5360 5357 5354 5350 5350 5352 5354 5357 5360 5364 5369 5376 5384 5391 5394
5455 5452 5449 5441 5436 5433 5435 5431 5428 5421 5415 5413 5410 5405 5397 5392 5387 5381 5377 5374 5365 5361 5357 5352 5343 5343 5342 5337 5330 5330 5330 5325 5322 5321 5321 5324 5325 5331 5334 5338 5345 5355 5363 5368
5440 5439 5429 5431 5424 5424 5417 5413 5409 5401 5394 5395 5389 5387 5377 5371 5366 5360 5354 5351 5344 5335 5329 5324 5317 5314 5314 5307 5299 5296 5296 5291 5292 5293 5294 5294 5294 5297 5304 5311 5319 5327 5334 5339
5426 5426 5416 5410 5416 5407 5401 5397 5390 5386 5380 5377 5370 5364 5358 5350 5345 5338 5333 5328 5321 5315 5305 5297 5292 5288 5283 5279 5272 5266 5263 5259 5258 5259 5262 5264 5265 5267 5273 5281 5289 5298 5309 5315
5416 5410 5404 5395 5397 5385 5387 5379 5373 5370 5364 5359 5354 5347 5340 5333 5329 5318 5315 5307 5298 5291 5282 5273 5265 5259 5256 5249 5243 5238 5232 5227 5226 5226 5228 5232 5235 5240 5243 5251 5261 5269 5281 5287
5401 5393 5382 5378 5381 5367 5369 5363 5357 5352 5347 5342 5337 5333 5326 5316 5309 5300 5296 5286 5277 5269 5261 5250 5242 5232 5228 5223 5218 5211 5203 5197 5194 5195 5197 5199 5202 5208 5215 5220 5231 5239 5251 5258